EW8204 Weather Reports


time (UTC)temp
C
wind
direction
speed
KPH
gust
KPH
rain 1hr
cm
rain 24hr
cm
rain mn
cm
humidity
%
barometer
mb
20260905043029 12 13 0.0 0.0 0.00 0.00 0.00 71 1012.5
20260905041527 12 13 0.0 0.0 0.00 0.00 0.00 70 1012.4
20260905040032 12 13 0.0 0.0 0.00 0.00 0.00 71 1012.3
20260905034529 12 13 0.0 0.0 0.00 0.00 0.00 70 1012.1
20260905033022 12 13 0.0 0.0 0.00 0.00 0.00 68 1011.9
20260905031528 12 13 0.0 0.0 0.00 0.00 0.00 67 1011.8
20260905030028 12 13 0.0 0.0 0.00 0.00 0.00 65 1011.6
20260905024517 13 13 0.0 0.0 0.00 0.00 0.00 62 1011.5
20260905023015 13 13 0.0 0.0 0.00 0.00 0.00 59 1011.4
20260905021521 15 13 0.0 0.0 0.00 0.00 0.00 56 1011.4
20260905020022 16 13 0.0 1.6 0.00 0.00 0.00 52 1011.3
20260905014515 16 15 0.0 8.0 0.00 0.00 0.00 49 1011.3
20260905013022 17 60 0.0 6.4 0.00 0.00 0.00 50 1011.2
20260905011510 17 118 0.0 6.4 0.00 0.00 0.00 48 1011.1
20260905010010 18 3 0.0 4.8 0.00 0.00 0.00 46 1010.9
20260905004513 18 115 0.0 6.4 0.00 0.00 0.00 46 1011.1
20260905003010 18 146 0.0 9.7 0.00 0.00 0.00 44 1010.9
20260905001508 18 308 0.0 8.0 0.00 0.00 0.00 41 1010.9
20260905000007 18 97 0.0 6.4 0.00 0.00 0.00 39 1011.0
20260904234506 19 358 1.6 9.7 0.00 0.00 0.00 41 1010.9
20260904233003 19 11 1.6 8.0 0.00 0.00 0.00 40 1011.0
20260904231502 20 90 3.2 14.5 0.00 0.00 0.00 43 1010.8
20260904230100 20 53 1.6 9.7 0.00 0.00 0.00 45 1010.9
20260904224559 20 350 0.0 11.3 0.00 0.00 0.00 49 1011.0
20260904223056 20 332 4.8 16.1 0.00 0.00 0.00 50 1011.0
20260904221557 20 152 3.2 14.5 0.00 0.00 0.00 53 1011.2
20260904220056 20 358 1.6 11.3 0.00 0.00 0.00 53 1011.1
20260904214552 21 20 1.6 8.0 0.00 0.00 0.00 51 1011.0
20260904213048 20 103 1.6 11.3 0.00 0.00 0.00 53 1011.0
20260904211542 18 111 1.6 16.1 0.00 0.00 0.00 58 1011.1
20260904210045 18 70 1.6 14.5 0.00 0.00 0.00 59 1011.0
20260904204541 18 51 1.6 12.9 0.00 0.00 0.00 61 1011.0
20260904203036 18 95 1.6 9.7 0.00 0.00 0.00 65 1011.0
20260904201532 17 98 1.6 9.7 0.00 0.00 0.00 67 1011.1
20260904200030 17 128 3.2 9.7 0.00 0.00 0.00 69 1011.0
20260904194527 17 99 1.6 12.9 0.00 0.00 0.00 71 1011.0
20260904193027 17 96 1.6 9.7 0.00 0.00 0.00 72 1011.1
20260904191522 16 82 0.0 6.4 0.00 0.00 0.00 75 1011.1
20260904190016 15 103 0.0 11.3 0.00 0.00 0.00 79 1011.2
20260904184513 15 6 0.0 4.8 0.00 0.00 0.00 81 1011.2
20260904183010 14 346 0.0 3.2 0.00 0.00 0.00 83 1011.2
20260904181526 14 306 0.0 3.2 0.00 0.00 0.00 83 1011.1
20260904180008 14 118 0.0 3.2 0.00 0.00 0.00 83 1011.1
20260904174505 14 103 1.6 6.4 0.00 0.00 0.00 83 1011.0
20260904173001 13 70 0.0 4.8 0.00 0.00 0.00 84 1010.9
20260904171619 13 74 0.0 4.8 0.00 0.00 0.00 84 1010.8
20260904170056 13 102 0.0 1.6 0.00 0.00 0.00 84 1010.6
20260904164556 13 85 0.0 3.2 0.00 0.00 0.00 84 1010.6
20260904163054 12 324 0.0 0.0 0.00 0.00 0.00 84 1010.6
20260904161552 12 324 0.0 3.2 0.00 0.00 0.00 84 1010.3
20260904160052 13 96 0.0 3.2 0.00 0.00 0.00 84 1010.4
20260904154555 13 84 0.0 4.8 0.00 0.00 0.00 84 1010.4
20260904153051 13 94 0.0 3.2 0.00 0.00 0.00 84 1010.3
20260904151549 13 102 0.0 1.6 0.00 0.00 0.00 84 1010.3
20260904150048 13 65 0.0 1.6 0.00 0.00 0.00 84 1010.4
20260904144546 13 336 0.0 0.0 0.00 0.00 0.00 84 1010.2
20260904143050 13 336 0.0 0.0 0.00 0.00 0.00 84 1010.1
20260904141543 12 336 0.0 0.0 0.00 0.00 0.00 84 1010.1
20260904140046 12 336 0.0 1.6 0.00 0.00 0.00 84 1009.9
20260904134545 12 336 0.0 1.6 0.00 0.00 0.00 84 1009.8
20260904133038 12 336 0.0 1.6 0.00 0.00 0.00 84 1009.7
20260904131537 12 336 0.0 0.0 0.00 0.00 0.00 84 1009.6
20260904130034 12 336 0.0 0.0 0.00 0.00 0.00 84 1009.5
20260904124533 12 336 0.0 0.0 0.00 0.00 0.00 84 1009.3
20260904123034 12 336 0.0 0.0 0.00 0.00 0.00 84 1009.4
20260904121531 13 336 0.0 0.0 0.00 0.00 0.00 84 1009.4
20260904120039 13 336 0.0 0.0 0.00 0.00 0.00 84 1009.4
20260904114528 13 336 0.0 0.0 0.00 0.00 0.00 83 1009.4
20260904113026 13 336 0.0 0.0 0.00 0.00 0.00 83 1009.4
20260904111525 13 336 0.0 0.0 0.00 0.00 0.00 83 1009.4
20260904110025 13 336 0.0 0.0 0.00 0.00 0.00 83 1009.4
20260904104535 13 336 0.0 0.0 0.00 0.00 0.00 83 1009.3
20260904103025 13 336 0.0 0.0 0.00 0.00 0.00 83 1009.3
20260904101521 13 336 0.0 0.0 0.00 0.00 0.00 83 1009.4
20260904100030 13 335 0.0 0.0 0.00 0.00 0.00 83 1009.3
20260904094525 13 336 0.0 0.0 0.00 0.00 0.00 83 1009.2
20260904093019 13 336 0.0 0.0 0.00 0.00 0.00 83 1009.3
20260904091517 13 336 0.0 0.0 0.00 0.00 0.00 83 1009.3
20260904090019 13 336 0.0 0.0 0.00 0.00 0.00 83 1009.3
20260904084515 13 336 0.0 0.0 0.00 0.00 0.00 83 1009.4
20260904083017 13 336 0.0 0.0 0.00 0.00 0.00 83 1009.6
20260904081511 13 336 0.0 1.6 0.00 0.00 0.00 83 1009.6
20260904080012 13 315 0.0 0.0 0.00 0.00 0.00 83 1009.6
20260904074510 13 338 0.0 1.6 0.00 0.00 0.00 80 1009.6
20260904073007 13 338 0.0 0.0 0.00 0.00 0.00 80 1009.5
20260904071503 13 338 0.0 0.0 0.00 0.00 0.00 80 1009.5
20260904070101 13 338 0.0 0.0 0.00 0.00 0.00 79 1009.7
20260904064600 13 338 0.0 0.0 0.00 0.00 0.00 79 1009.8
20260904063059 13 338 0.0 0.0 0.00 0.00 0.00 79 1009.8
20260904061558 13 338 0.0 0.0 0.00 0.00 0.00 79 1009.8
20260904060057 13 338 0.0 0.0 0.00 0.00 0.00 78 1009.9
20260904054557 13 338 0.0 1.6 0.00 0.00 0.00 78 1010.1
20260904053102 13 338 0.0 0.0 0.00 0.00 0.00 79 1010.1
20260904051555 13 338 0.0 0.0 0.00 0.00 0.00 79 1010.4
20260904050053 13 338 0.0 0.0 0.00 0.00 0.00 79 1010.5
20260904044555 13 338 0.0 0.0 0.00 0.00 0.00 79 1010.5